Regional Weather Roundup
Issued by NWS Albany, NY

Home | Current Version | Previous Version | Text Only | Print | Product List | Glossary On
Versions: 1 2 3 4 5 6 7 8 9 10 11 12 13 14 15 16 17 18 19 20 21 22 23 24 25 26 27 28 29 30 31 32 33 34 35 36 37 38 39 40 41 42 43 44 45 46 47 48 49 50
000
ASUS41 KALY 211910
RWRALY

NEW YORK STATE HOURLY WEATHER ROUNDUP
NATIONAL WEATHER SERVICE ALBANY NY
200 PM EST TUE FEB 21 2017

NOTE: "FAIR" INDICATES FEW OR NO CLOUDS BELOW 12,000 FEET WITH NO
SIGNIFICANT WEATHER AND/OR NO OBSTRUCTIONS TO VISIBILITY.

NYZ032-033-038>043-046>054-057>066-NYZ062>081-082-084-212000-
EAST


CITY           SKY/WX    TMP DP  RH WIND       PRES   REMARKS
ALBANY         CLOUDY    42  16  34 S22       30.19F
GLENS FALLS    MOSUNNY   41  19  41 S10       30.16F
POUGHKEEPSIE   MOSUNNY   46  22  38 S8        30.23F
NEWBURGH       PTSUNNY   45  25  45 CALM      30.24F
MONTGOMERY     CLOUDY    46  25  43 SW10      30.21F
WHITE PLAINS   CLOUDY    45  24  43 S14       30.24F
ISLIP          CLOUDY    43  27  53 S8        30.27F
NEW YORK CITY  CLOUDY    47  28  47 S10       30.27F
CENTRAL PARK   MOSUNNY   46  26  45 VRB3      30.28F
$$

NYZ005>009-017-018-044>046-055-056-212000-
CENTRAL


CITY           SKY/WX    TMP DP  RH WIND       PRES   REMARKS
FULTON         CLOUDY    43  21  41 SE8       30.03F
SYRACUSE       CLOUDY    47  19  33 S12       30.05F
ROME           CLOUDY    41  22  46 SE10      30.10F
ELMIRA         MOSUNNY   49  21  33 S13       30.07F
BINGHAMTON     CLOUDY    41  17  38 S14G22    30.09F
MONTICELLO     MOSUNNY   41  23  48 S9        30.19F
$$

NYZ026>034-041>043-087-212000-
NORTH


CITY           SKY/WX    TMP DP  RH WIND       PRES   REMARKS
WATERTOWN      CLOUDY    47  20  34 S8G20     30.01F
FORT DRUM      NOT AVBL
OGDENSBURG     FAIR      47  18  32 S10G17    30.02F
MASSENA        CLOUDY    35  22  58 NE7       30.05F WCI  29
SARANAC LAKE   CLOUDY    44   9  23 CALM      29.98F
PLATTSBURGH    CLOUDY    40  19  43 S17G23    30.07F WCI  31
$$

NYZ001>004-010>016-019>021-085-212000-
WEST


CITY           SKY/WX    TMP DP  RH WIND       PRES   REMARKS
NIAGARA FALLS  CLOUDY    56  32  40 SW7       29.93F
BUFFALO        CLOUDY    58  34  40 S12       29.94F
DUNKIRK        CLOUDY    57  34  41 S14G24    29.95F
JAMESTOWN      CLOUDY    54  30  40 S10       29.97F
WELLSVILLE     CLOUDY    49  22  34 S8        30.01F
ROCHESTER      CLOUDY    56  28  34 S14G21    29.96F
PENN YAN       MOSUNNY   49  22  34 SW17G24   30.01F
$$

             KEY
       WCI = WIND CHILL INDEX
       VSB = VISIBILITY
       HX  = HEAT INDEX
$$



USA.gov is the U.S. government's official web portal to all federal, state and local government web resources and services.